User: anonymous   Login
Location: Myrnam
(53.6612°N, 111.2289°W)
Time: 08:36:47
(UTC+00:00)
Language:

METEOR M2 - Orbit

View from above orbital plane
View from above orbital plane
View from above satellite
View from above satellite

Ground track
Ground track

The orbit data is extracted from the following two-line orbital elements,

1 40069U 14037A   23335.94614055  .00000329  00000-0  17113-3 0  9994
2 40069  98.4285 334.1721 0005174 204.4575 155.6358 14.20851110487478
Epoch (UTC): 01 December 2023 22:42:26
Eccentricity: 0.0005174
inclination: 98.4285°
perigee height: 819 km
apogee height: 826 km
right ascension of ascending node: 334.1721°
argument of perigee: 204.4575°
revolutions per day: 14.20851110
mean anomaly at epoch: 155.6358°
orbit number at epoch: 48747

The dashed part of the orbit path shows where the satellite is in the earth's shadow,  

DLR